Regional Weather Roundup
Issued by NWS

Home | Current Version | Previous Version | Text Only | Print | Product List | Glossary On
Versions: 1 2 3 4 5 6 7 8 9 10 11 12 13 14 15 16 17 18 19 20 21 22 23 24 25 26 27 28 29 30 31 32 33 34 35 36 37 38 39 40 41 42 43 44 45 46 47 48 49 50
000
ASUS43 KMKX 170221
RWRWI

WISCONSIN REGIONAL WEATHER ROUNDUP
NATIONAL WEATHER SERVICE MILWAUKEE/SULLIVAN WI
900 PM CDT MON OCT 16 2017

NOTE: "FAIR" INDICATES FEW OR NO CLOUDS BELOW 12,000 FEET WITH NO
SIGNIFICANT WEATHER AND/OR OBSTRUCTIONS TO VISIBILITY.

WIZ001-002-006>008-014>016-023>028-170300-
NORTHWEST WISCONSIN

CITY           SKY/WX    TMP DP  RH WIND       PRES   REMARKS
SUPERIOR ARPT  CLEAR     52  37  56 W6        29.90F
ASHLAND        CLEAR     53  35  50 SW10      29.92F
HAYWARD        CLEAR     48  35  60 S6        29.97F
SIREN          CLEAR     49  37  63 S7        29.95F
CUMBERLAND     CLEAR     43  34  70 S7        29.98F
RICE LAKE      CLEAR     47  36  65 SE6       30.01F
CHETEK         CLEAR     47  38  68 SE3       30.01F
LADYSMITH      CLEAR     49  36  60 S7        30.02F
EAU CLAIRE     CLEAR     52  36  54 S10       30.01F
MENOMONIE      CLEAR     52  36  53 SE5       30.01F
NEW RICHMOND   CLEAR     51  36  56 S8        29.98F
OSCEOLA        CLEAR     51  38  61 S7        29.99F
$$

WIZ003>005-009-010-017-018-170300-
NORTH CENTRAL WISCONSIN

CITY           SKY/WX    TMP DP  RH WIND       PRES   REMARKS
MANITOWISH WTR CLEAR     44  34  68 S6        29.99F
ARBOR VITAE    CLEAR     47  36  66 S7        30.00F
WOODRUFF       CLEAR     47  36  66 S7        30.00F
RHINELANDER    CLEAR     48  35  60 SW9       30.03F
EAGLE RIVER    CLEAR     45  32  61 S3        30.01F
LAND O LAKES   CLEAR     46  34  63 S6        30.01F
PHILLIPS       CLEAR     47  35  63 S7        30.00F
TOMAHAWK       CLEAR     40  34  79 CALM      30.04F
MEDFORD        CLEAR     47  35  63 S7        30.04S
MERRILL        CLEAR     46  36  68 S3        30.06F
$$

WIZ029-030-035-036-043>047-170300-
CENTRAL WISCONSIN

CITY           SKY/WX    TMP DP  RH WIND       PRES   REMARKS
WAUSAU         CLEAR     49  38  65 S5        30.06F
MOSINEE        NOT AVBL
MARSHFIELD     CLEAR     46  35  65 S6        30.06F
STEVENS POINT  CLEAR     45  37  73 S6        30.09F
WAUPACA        CLEAR     46  38  72 CALM      30.10F
WAUTOMA        CLEAR     47  38  71 S3        30.11F
WISC RAPIDS    CLEAR     48  38  68 S7        30.09F
CAMP DOUGLAS   PTCLDY    46  36  66 S6        30.08F
$$

WIZ011>013-019>022-031-037>040-048>050-170300-
NORTHEAST WISCONSIN

CITY           SKY/WX    TMP DP  RH WIND       PRES   REMARKS
ANTIGO         CLEAR     43  36  76 SW8       30.07S
SHAWANO        CLEAR     50  38  63 CALM      30.09S
OCONTO         CLEAR     49  37  62 SW5       30.09S
STURGEON BAY   CLEAR     50  38  63 S10       30.10F
GREEN BAY      CLEAR     48  42  80 S6        30.11F
MANITOWOC      CLEAR     49  37  63 S6        30.14S
APPLETON       PTCLDY    46  36  66 SW7       30.10F
CLINTONVILLE   CLEAR     46  37  71 S7        30.09F
OSHKOSH        CLEAR     44  38  79 S6        30.12F
$$

WIZ032>034-041-042-053>061-170300-
SOUTHWEST WISCONSIN

CITY           SKY/WX    TMP DP  RH WIND       PRES   REMARKS
LA CROSSE      CLEAR     55  41  59 S6        30.07F
SPARTA         CLEAR     53  36  52 S5        30.09S
VIROQUA        CLEAR     52  37  55 CALM      30.10F
BOSCOBEL       CLEAR     47  41  80 CALM      30.13F
PRAIRIE DU CHI CLEAR     50  37  60 CALM      30.12F
PLATTEVILLE    CLEAR     51  38  61 S8        30.16S
$$

WIZ056-057-062-063-064-067-068-170300-
SOUTH CENTRAL WISCONSIN

CITY           SKY/WX    TMP DP  RH WIND       PRES   REMARKS
REEDSBURG      CLEAR     49  36  60 S7        30.11F
BARABOO/DELLS  CLEAR     45  37  72 S9        30.12S
LONE ROCK      CLEAR     42  39  89 E3        30.13F
MINERAL POINT  CLEAR     52  36  54 S8        30.15S
MADISON        CLEAR     53  38  56 S8        30.14F
MIDDLETON      CLEAR     53  37  54 SW6       30.15F
WATERTOWN      CLEAR     47  38  71 S5        30.15S
MONROE         CLEAR     46  36  66 S9        30.16F
JANESVILLE     CLEAR     52  37  58 S6        30.17F
$$

WIZ051-052-058>065-066-070>072-170300-
SOUTHEAST WISCONSIN

CITY           SKY/WX    TMP DP  RH WIND       PRES   REMARKS
MILWAUKEE      CLEAR     52  38  58 S7        30.17F
WAUKESHA       CLEAR     46  36  66 CALM      30.18S
MILWAUKEE/TIMM CLEAR     48  36  61 S6        30.18S
RACINE         CLEAR     49  40  71 SW6       30.19F
BURLINGTON     CLEAR     42  40  93 SW3       30.18F
KENOSHA        CLEAR     49  38  65 S7        30.18F
FOND DU LAC    CLEAR     45  37  73 S6        30.13F
SHEBOYGAN      CLEAR     41  37  86 CALM      30.14F
WEST BEND      CLEAR     45  37  76 S3        30.16R
JUNEAU         CLEAR     47  37  66 S5        30.15S
$$

LSZ147-162-170300-
LAKE SUPERIOR

STATION/POSITION TIME  TEMP    WIND        PRES    WAVE
                       AIR SEA DIR/SP/G            HT/PER
                 (UTC) (F)     (DEG/KT/KT) (MB)    (FT/S)
W MID LAKE BUOY  0150   55 53              1012.0F   3/ 5
DEVILS ISLAND    0200   57     210/ 14/ 20 1012.3F
SAXON HARBOR     0130   56     190/ 10/ 15 1012.5F
$$

LMZ867-665-643>646-170300-
LAKE MICHIGAN

STATION/POSITION TIME  TEMP    WIND        PRES    WAVE
                       AIR SEA DIR/SP/G            HT/PER
                 (UTC) (F)     (DEG/KT/KT) (MB)    (FT/S)
S GREEN BAY BUOY 0200   57 58  200/ 16/ 21 1018.4
N MID LAKE BUOY  0150   57 60  210/ 21/ 27 1018.6F   5/ 5
NORTHPORT PIER   0140   51     180/  4/  9 1018.3F
KEWAUNEE LAKESHO 0154   53     210/  8/ 10 1018.9F
SHEBOYGAN LAKESH 0200   54     210/  9/ 10 1020.8S
PORT WASHINGTON  0130   52     260/  5/  7 1022.0S
MILWAUKEE LAKESH 0200   55     230/  8/  9   N/A
S MID LAKE BUOY  0150   60 62  250/ 14/ 16 1022.4F   1/ 3
KENOSHA   LAKESH 0200   53     210/  8/ 10 1022.0
$$

TC  - TEMPERATURE IN CELSIUS
VSB - VISIBILITY IN STATUTE MILES
WCI - WIND CHILL INDEX
HX  - HEAT INDEX




USA.gov is the U.S. government's official web portal to all federal, state and local government web resources and services.